TimeMDT,TemperatureF,Dew PointF,Humidity,Sea Level PressureIn,VisibilityMPH,Wind Direction,Wind SpeedMPH,Gust SpeedMPH,PrecipitationIn,Events,Conditions,WindDirDegrees,DateUTC
12:15 AM,46.8,16.5,30,30.04,10.0,Calm,Calm,-,N/A,,Clear,0,2013-10-21 06:15:00
12:35 AM,41.4,16.7,37,30.04,10.0,Calm,Calm,-,N/A,,Clear,0,2013-10-21 06:35:00
12:55 AM,43.2,16.0,33,30.04,10.0,Calm,Calm,-,N/A,,Clear,0,2013-10-21 06:55:00
1:15 AM,41.4,16.5,37,30.04,10.0,West,3.5,-,N/A,,Clear,280,2013-10-21 07:15:00
1:35 AM,44.6,17.2,33,30.05,10.0,ESE,3.5,-,N/A,,Clear,120,2013-10-21 07:35:00
1:55 AM,44.4,16.9,33,30.06,10.0,SSW,5.8,-,N/A,,Clear,210,2013-10-21 07:55:00
2:15 AM,43.5,17.6,35,30.06,10.0,SW,5.8,-,N/A,,Clear,220,2013-10-21 08:15:00
2:35 AM,44.4,19.2,37,30.07,10.0,West,5.8,-,N/A,,Clear,270,2013-10-21 08:35:00
2:55 AM,39.9,19.2,43,30.07,10.0,WSW,8.1,-,N/A,,Clear,240,2013-10-21 08:55:00
3:15 AM,39.9,19.6,44,30.07,10.0,West,8.1,-,N/A,,Clear,260,2013-10-21 09:15:00
3:35 AM,37.9,20.3,49,30.08,10.0,WNW,8.1,-,N/A,,Clear,290,2013-10-21 09:35:00
3:55 AM,37.6,21.4,52,30.08,10.0,WNW,9.2,-,N/A,,Clear,300,2013-10-21 09:55:00
4:15 AM,36.7,20.5,52,30.08,10.0,WNW,9.2,-,N/A,,Clear,300,2013-10-21 10:15:00
4:35 AM,38.1,22.6,54,30.08,10.0,NW,6.9,-,N/A,,Clear,310,2013-10-21 10:35:00
4:55 AM,36.5,23.9,60,30.09,10.0,NNW,8.1,-,N/A,,Clear,330,2013-10-21 10:55:00
5:15 AM,35.8,24.8,64,30.09,10.0,WNW,5.8,-,N/A,,Clear,300,2013-10-21 11:15:00
5:35 AM,35.1,25.0,67,30.10,10.0,WSW,4.6,-,N/A,,Clear,250,2013-10-21 11:35:00
5:55 AM,33.4,24.8,71,30.11,10.0,South,8.1,-,N/A,,Clear,170,2013-10-21 11:55:00
6:15 AM,36.1,29.3,76,30.12,10.0,South,8.1,-,N/A,,Clear,180,2013-10-21 12:15:00
6:35 AM,36.0,28.4,74,30.12,10.0,SE,6.9,-,N/A,,Clear,130,2013-10-21 12:35:00
6:55 AM,34.3,28.0,78,30.14,10.0,NNW,3.5,-,N/A,,Clear,340,2013-10-21 12:55:00
7:15 AM,34.7,27.9,76,30.14,10.0,Calm,Calm,-,N/A,,Clear,0,2013-10-21 13:15:00
7:35 AM,35.4,27.7,73,30.15,10.0,Calm,Calm,-,N/A,,Clear,0,2013-10-21 13:35:00
7:55 AM,31.5,23.9,74,30.15,10.0,Calm,Calm,-,N/A,,Clear,0,2013-10-21 13:55:00
8:15 AM,39.2,27.1,62,30.17,10.0,Calm,Calm,-,N/A,,Clear,0,2013-10-21 14:15:00
8:35 AM,43.3,27.7,54,30.18,10.0,Calm,Calm,-,N/A,,Clear,0,2013-10-21 14:35:00
8:55 AM,45.1,30.7,57,30.19,10.0,NW,4.6,-,N/A,,Clear,310,2013-10-21 14:55:00
9:15 AM,47.7,31.1,53,30.20,10.0,NNW,6.9,-,N/A,,Clear,330,2013-10-21 15:15:00
9:35 AM,49.5,32.2,51,30.20,10.0,NW,9.2,-,N/A,,Clear,320,2013-10-21 15:35:00
9:55 AM,51.8,32.5,48,30.20,10.0,NNW,11.5,-,N/A,,Clear,330,2013-10-21 15:55:00
10:15 AM,54.1,32.2,43,30.21,10.0,NNW,11.5,-,N/A,,Clear,330,2013-10-21 16:15:00
10:35 AM,55.2,32.0,41,30.20,10.0,NNW,6.9,-,N/A,,Clear,340,2013-10-21 16:35:00
10:55 AM,56.5,32.0,39,30.20,10.0,North,9.2,-,N/A,,Clear,10,2013-10-21 16:55:00
11:15 AM,55.8,31.1,39,30.20,10.0,North,9.2,-,N/A,,Clear,10,2013-10-21 17:15:00
11:55 AM,57.9,31.5,37,30.20,10.0,NNE,5.8,-,N/A,,Clear,30,2013-10-21 17:55:00
12:15 PM,58.3,31.1,36,30.20,10.0,North,4.6,-,N/A,,Clear,10,2013-10-21 18:15:00
12:35 PM,59.9,30.7,33,30.20,10.0,East,4.6,-,N/A,,Clear,100,2013-10-21 18:35:00
12:55 PM,60.3,30.9,33,30.19,10.0,NE,8.1,-,N/A,,Clear,50,2013-10-21 18:55:00
1:15 PM,60.4,30.2,32,30.18,10.0,Calm,Calm,-,N/A,,Clear,0,2013-10-21 19:15:00
1:35 PM,61.3,30.4,31,30.18,10.0,Calm,Calm,-,N/A,,Clear,0,2013-10-21 19:35:00
1:55 PM,61.3,30.4,31,30.17,10.0,Calm,Calm,-,N/A,,Clear,0,2013-10-21 19:55:00
2:15 PM,61.9,28.9,29,30.16,10.0,NNE,4.6,-,N/A,,Clear,20,2013-10-21 20:15:00
2:35 PM,62.8,27.3,26,30.15,10.0,ENE,4.6,-,N/A,,Clear,70,2013-10-21 20:35:00
2:55 PM,63.5,27.3,25,30.15,10.0,Calm,Calm,-,N/A,,Clear,0,2013-10-21 20:55:00
3:15 PM,64.4,27.5,25,30.15,10.0,Calm,Calm,-,N/A,,Clear,0,2013-10-21 21:15:00
3:35 PM,64.2,27.0,24,30.15,10.0,ENE,5.8,-,N/A,,Clear,60,2013-10-21 21:35:00
3:55 PM,64.9,26.4,23,30.15,10.0,East,5.8,-,N/A,,Clear,80,2013-10-21 21:55:00
4:15 PM,64.2,26.6,24,30.15,10.0,Calm,Calm,-,N/A,,Clear,0,2013-10-21 22:15:00
4:35 PM,65.3,27.0,24,30.15,10.0,NE,3.5,-,N/A,,Clear,40,2013-10-21 22:35:00
4:55 PM,64.4,26.6,24,30.15,10.0,NE,4.6,-,N/A,,Clear,40,2013-10-21 22:55:00
5:15 PM,64.4,27.1,24,30.15,10.0,ESE,4.6,-,N/A,,Clear,110,2013-10-21 23:15:00
5:35 PM,64.0,27.3,25,30.14,10.0,East,5.8,-,N/A,,Clear,90,2013-10-21 23:35:00
5:55 PM,63.1,27.1,26,30.15,10.0,ESE,3.5,-,N/A,,Clear,120,2013-10-21 23:55:00
6:15 PM,61.7,27.3,27,30.15,10.0,Calm,Calm,-,N/A,,Clear,0,2013-10-22 00:15:00
6:35 PM,60.4,26.8,28,30.15,10.0,Calm,Calm,-,N/A,,Clear,0,2013-10-22 00:35:00
6:55 PM,59.2,27.1,29,30.15,10.0,Calm,Calm,-,N/A,,Clear,0,2013-10-22 00:55:00
7:15 PM,54.1,26.1,34,30.16,10.0,Calm,Calm,-,N/A,,Clear,0,2013-10-22 01:15:00
7:35 PM,59.0,27.5,30,30.16,10.0,Calm,Calm,-,N/A,,Clear,0,2013-10-22 01:35:00
7:55 PM,54.0,25.3,33,30.17,10.0,Calm,Calm,-,N/A,,Clear,0,2013-10-22 01:55:00
8:15 PM,48.0,23.9,39,30.18,10.0,Calm,Calm,-,N/A,,Clear,0,2013-10-22 02:15:00
8:35 PM,49.6,24.3,37,30.19,10.0,Calm,Calm,-,N/A,,Clear,0,2013-10-22 02:35:00
8:55 PM,49.3,23.9,37,30.19,10.0,Calm,Calm,-,N/A,,Clear,0,2013-10-22 02:55:00
9:15 PM,47.1,23.2,39,30.21,10.0,Calm,Calm,-,N/A,,Clear,0,2013-10-22 03:15:00
9:35 PM,48.9,24.6,39,30.21,10.0,Calm,Calm,-,N/A,,Clear,0,2013-10-22 03:35:00
9:55 PM,44.4,23.5,44,30.22,10.0,Calm,Calm,-,N/A,,Clear,0,2013-10-22 03:55:00
10:15 PM,45.0,23.0,42,30.23,10.0,SSE,5.8,-,N/A,,Clear,160,2013-10-22 04:15:00
10:35 PM,41.0,22.3,47,30.23,10.0,SSE,8.1,-,N/A,,Clear,160,2013-10-22 04:35:00
10:55 PM,41.0,23.5,50,30.25,10.0,SSE,9.2,-,N/A,,Clear,160,2013-10-22 04:55:00
11:15 PM,43.9,24.6,47,30.25,10.0,South,4.6,-,N/A,,Clear,170,2013-10-22 05:15:00
11:35 PM,43.0,25.0,49,30.23,10.0,South,5.8,-,N/A,,Clear,170,2013-10-22 05:35:00
11:55 PM,43.0,25.2,49,30.23,10.0,South,4.6,-,N/A,,Clear,190,2013-10-22 05:55:00